Regional Weather Roundup
Issued by NWS Green Bay, WI

Home | Current Version | Previous Version | Text Only | Print | Product List | Glossary On
Versions: 1 2 3 4 5 6 7 8 9 10 11 12 13 14 15 16 17 18 19 20 21 22 23 24 25 26 27 28 29 30 31 32 33 34 35 36 37 38 39 40 41 42 43 44 45 46 47 48 49 50
590
ASUS43 KGRB 111311
RWRGRB

NORTH-CENTRAL AND NORTHEAST WISCONSIN REGIONAL WEATHER ROUNDUP
NATIONAL WEATHER SERVICE GREEN BAY WI
700 AM CST SUN DEC 11 2016

WIZ005-009-010>012-018-019-111400-
NORTH CENTRAL WISCONSIN

CITY           SKY/WX    TMP DP  RH WIND       PRES   REMARKS
IRONWOOD       CLOUDY     4   0  83 E6        30.08F WCI  -7
MANITOWISH WTR LGT SNOW   9   7  89 E6        30.02S WCI   0
ARBOR VITAE    LGT SNOW  11   8  85 E6        30.02S WCI   2
EAGLE RIVER    LGT SNOW   9   4  80 SE7       30.03F WCI  -2
LAND O LAKES   FLURRIES   9   6  84 E3        30.05F
RHINELANDER    LGT SNOW  11   8  88 E8        30.03F VSB 1   WCI  -1
PHILLIPS       LGT SNOW  10   8  89 E5        30.02S WCI   2
ANTIGO         LGT SNOW  11   8  89 E7        30.03F WCI   0
TOMAHAWK       LGT SNOW  11   8  87 E3        30.03F
MERRILL        LGT SNOW  13  10  87 E7        30.05S WCI   2
$$

WIZ013-073-111400-
NORTHEAST WISCONSIN

CITY           SKY/WX    TMP DP  RH WIND       PRES   REMARKS
IRON MOUNTAIN  CLOUDY    13   4  67 VRB5      30.09F WCI   5
MARINETTE      LGT SNOW  16  14  93 N6        30.14F FOG     WCI   7
OCONTO         CLOUDY    16  14  90 N6        30.12F WCI   8
$$

WIZ017-030-035>037-045-111400-
CENTRAL WISCONSIN

CITY           SKY/WX    TMP DP  RH WIND       PRES   REMARKS
MEDFORD        LGT SNOW  12   9  85 E9        29.99F WCI   0
WAUSAU         LGT SNOW  13  10  88 E9        30.02F FOG     WCI   1
MOSINEE        LGT SNOW  12  12 100 E12       30.03F WCI  -2
MARSHFIELD     LGT SNOW  15  11  83 E12       29.99F VSB 3/4 WCI   2
WISC RAPIDS    LGT SNOW  17  15  92 E10       30.02F VSB 1   WCI   5
STEVENS POINT  LGT SNOW  13  11  92 E10       30.03F VSB 3/4 WCI   0
WAUPACA        LGT SNOW  19  16  86 CALM      30.06F VSB 1
SHAWANO        LGT SNOW  17  14  86 NE10      30.09F WCI   5
CLINTONVILLE   LGT SNOW  18  14  86 NE7       30.08F WCI   8
WAUTOMA        LGT SNOW  20  17  88 E8        30.04F FOG
$$

WIZ038-039-048-051-111400-
FOX VALLEY

CITY           SKY/WX    TMP DP  RH WIND       PRES   REMARKS
NWS GREEN BAY  LGT SNOW  21  19  92 NE13      30.09F FOG     WCI   9
APPLETON       LGT SNOW N/A N/A N/A NE8       30.05F VSB 1
OSHKOSH        LGT SNOW  22  19  89 E10       30.05F VSB 3/4
FOND DU LAC    LGT SNOW  23  19  85 E6        30.05S FOG
$$

WIZ022-050-052-111400-
EAST CENTRAL WISCONSIN

CITY           SKY/WX    TMP DP  RH WIND       PRES   REMARKS
EPHRAIM        LGT SNOW  19  17  93 NE6       30.12F
WASHINGTON ISL CLOUDY    19  14  79 CALM      30.14F
STURGEON BAY   LGT SNOW  20  17  88 NE9       30.11F FOG     WCI   9
MANITOWOC      SNOW      23  21  92 N5        30.07F VSB 1/2
SHEBOYGAN      LGT SNOW  23  21  92 CALM      30.04F VSB 3/4
$$

LMZ563-521-522-541>543-111400-
LAKESHORE

STATION/POSITION TIME  TEMP    WIND        PRES    VSBY  WAVE
                       AIR SEA DIR/SP/G                  HT/PER
                 (UTC) (F)     (DEG/KT/KT) (MB)    (MI)  (FT/S)
SHEBOYGAN LKSHOR 1300   29      90/ 12/ 15 1018.0F
KEWAUNEE LKSHORE 1248   26      80/  6/ 13 1018.7F
NORTHPORT PIER   1240   22      20/  3/  6 1021.3F
SISTER BAY LKSHO 1205   19      40/  2/  5   N/A
CHAMBERS ISLAND  1240   22      50/  6/  8 1020.3F
MENOMINEE LKSHOR 1248   22      70/  8/ 10 1019.7F
$$




USA.gov is the U.S. government's official web portal to all federal, state and local government web resources and services.